| time (UTC) | temp F | wind direction | speed MPH | gust MPH | rain 1hr in | rain 24hr in | rain mn in | humidity % | barometer mb |
| 20260507094804 | 68 | 34 | 1.0 | 5.0 | 0.00 | 0.00 | 0.00 | 49 | 1013.0 |
| 20260507094304 | 67 | 343 | 2.0 | 6.0 | 0.00 | 0.00 | 0.00 | 49 | 1013.1 |
| 20260507093804 | 66 | 192 | 2.0 | 6.0 | 0.00 | 0.00 | 0.00 | 53 | 1013.2 |
| 20260507091804 | 66 | 4 | 2.0 | 8.0 | 0.00 | 0.00 | 0.00 | 55 | 1013.0 |
| 20260507090304 | 67 | 24 | 1.0 | 8.0 | 0.00 | 0.00 | 0.00 | 54 | 1013.0 |
| 20260507084805 | 65 | 35 | 3.0 | 6.0 | 0.00 | 0.00 | 0.00 | 56 | 1013.0 |
| 20260507084306 | 64 | 22 | 3.0 | 7.0 | 0.00 | 0.00 | 0.00 | 56 | 1012.9 |
| 20260507083804 | 64 | 14 | 1.0 | 8.0 | 0.00 | 0.00 | 0.00 | 58 | 1013.0 |
| 20260507081305 | 63 | 331 | 2.0 | 5.0 | 0.00 | 0.00 | 0.00 | 57 | 1013.1 |
| 20260507080804 | 63 | 252 | 2.0 | 6.0 | 0.00 | 0.00 | 0.00 | 57 | 1013.4 |
| 20260507080304 | 63 | 36 | 3.0 | 7.0 | 0.00 | 0.00 | 0.00 | 55 | 1013.2 |
| 20260507074804 | 62 | 61 | 3.0 | 5.0 | 0.00 | 0.00 | 0.00 | 61 | 1013.2 |
| 20260507074305 | 62 | 44 | 3.0 | 6.0 | 0.00 | 0.00 | 0.00 | 60 | 1013.1 |
| 20260507073804 | 62 | 38 | 1.0 | 5.0 | 0.00 | 0.00 | 0.00 | 63 | 1013.2 |
| 20260507073305 | 62 | 318 | 1.0 | 5.0 | 0.00 | 0.00 | 0.00 | 64 | 1013.1 |
| 20260507071805 | 61 | 290 | 1.0 | 3.0 | 0.00 | 0.00 | 0.00 | 72 | 1013.3 |
| 20260507071305 | 61 | 67 | 0.0 | 3.0 | 0.00 | 0.00 | 0.00 | 73 | 1013.4 |
| 20260507070804 | 60 | 355 | 1.0 | 3.0 | 0.00 | 0.00 | 0.00 | 74 | 1013.2 |
| 20260507064804 | 61 | 54 | 2.0 | 3.0 | 0.00 | 0.00 | 0.00 | 75 | 1013.0 |
| 20260507064304 | 59 | 68 | 0.0 | 5.0 | 0.00 | 0.00 | 0.00 | 79 | 1013.0 |
| 20260507063804 | 60 | 28 | 1.0 | 2.0 | 0.00 | 0.00 | 0.00 | 79 | 1013.2 |
| 20260507063305 | 60 | 292 | 1.0 | 3.0 | 0.00 | 0.00 | 0.00 | 78 | 1013.0 |
| 20260507061804 | 57 | 157 | 0.0 | 2.0 | 0.00 | 0.00 | 0.00 | 84 | 1013.3 |
| 20260507061304 | 55 | 82 | 1.0 | 3.0 | 0.00 | 0.00 | 0.00 | 87 | 1013.6 |
| 20260507060804 | 56 | 32 | 1.0 | 2.0 | 0.00 | 0.00 | 0.00 | 87 | 1013.5 |
| 20260507054804 | 53 | 79 | 0.0 | 2.0 | 0.00 | 0.00 | 0.00 | 92 | 1013.4 |
| 20260507054304 | 52 | 50 | 1.0 | 2.0 | 0.00 | 0.00 | 0.00 | 93 | 1013.5 |
| 20260507053803 | 50 | 101 | 1.0 | 3.0 | 0.00 | 0.00 | 0.00 | 94 | 1013.7 |
| 20260507051304 | 48 | 67 | 1.0 | 2.0 | 0.00 | 0.00 | 0.00 | 97 | 1013.6 |
| 20260507050304 | 47 | 153 | 1.0 | 2.0 | 0.00 | 0.00 | 0.00 | 97 | 1013.6 |
| 20260507044804 | 44 | 70 | 1.0 | 2.0 | 0.00 | 0.00 | 0.00 | 97 | 1013.8 |
| 20260507043304 | 43 | 70 | 1.0 | 2.0 | 0.00 | 0.00 | 0.00 | 97 | 1014.2 |
| 20260507041804 | 43 | 82 | 0.0 | 2.0 | 0.00 | 0.00 | 0.00 | 97 | 1014.1 |
| 20260507040804 | 43 | 70 | 1.0 | 2.0 | 0.00 | 0.00 | 0.00 | 97 | 1014.1 |
| 20260507040304 | 43 | 76 | 1.0 | 2.0 | 0.00 | 0.00 | 0.00 | 97 | 1014.2 |
| 20260507034804 | 44 | 65 | 1.0 | 2.0 | 0.00 | 0.00 | 0.00 | 97 | 1014.0 |
| 20260507033805 | 44 | 66 | 1.0 | 1.0 | 0.00 | 0.00 | 0.00 | 97 | 1014.1 |
| 20260507033304 | 44 | 135 | 0.0 | 1.0 | 0.00 | 0.00 | 0.00 | 97 | 1014.0 |
| 20260507031804 | 45 | 132 | 1.0 | 1.0 | 0.00 | 0.00 | 0.00 | 97 | 1014.1 |
| 20260507030304 | 45 | 150 | 0.0 | 2.0 | 0.00 | 0.00 | 0.00 | 96 | 1014.0 |
| 20260507024804 | 45 | 100 | 1.0 | 2.0 | 0.00 | 0.00 | 0.00 | 97 | 1013.8 |
| 20260507023303 | 45 | 144 | 0.0 | 2.0 | 0.00 | 0.00 | 0.00 | 96 | 1014.1 |
| 20260507021804 | 46 | 75 | 1.0 | 2.0 | 0.00 | 0.00 | 0.00 | 96 | 1014.0 |
| 20260507021304 | 46 | 103 | 1.0 | 2.0 | 0.00 | 0.00 | 0.00 | 96 | 1014.1 |
| 20260507020804 | 46 | 92 | 0.0 | 1.0 | 0.00 | 0.00 | 0.00 | 96 | 1014.0 |
| 20260507020304 | 47 | 111 | 1.0 | 2.0 | 0.00 | 0.00 | 0.00 | 96 | 1014.0 |
| 20260507014307 | 46 | 107 | 0.0 | 2.0 | 0.00 | 0.00 | 0.00 | 96 | 1014.0 |
| 20260507013805 | 46 | 81 | 2.0 | 2.0 | 0.00 | 0.00 | 0.00 | 96 | 1014.0 |
| 20260507013305 | 46 | 116 | 0.0 | 2.0 | 0.00 | 0.00 | 0.00 | 96 | 1014.1 |
| 20260507011805 | 47 | 95 | 0.0 | 1.0 | 0.00 | 0.01 | 0.00 | 95 | 1013.9 |
| 20260507011306 | 47 | 95 | 2.0 | 2.0 | 0.00 | 0.03 | 0.00 | 95 | 1014.1 |
| 20260507010806 | 47 | 91 | 1.0 | 2.0 | 0.00 | 0.07 | 0.00 | 95 | 1013.9 |
| 20260507010306 | 47 | 57 | 0.0 | 2.0 | 0.00 | 0.16 | 0.00 | 95 | 1013.9 |
| 20260507004806 | 48 | 85 | 1.0 | 1.0 | 0.00 | 0.48 | 0.00 | 94 | 1014.2 |
| 20260507004306 | 48 | 106 | 0.0 | 1.0 | 0.00 | 0.52 | 0.00 | 94 | 1013.9 |
| 20260507003805 | 48 | 27 | 0.0 | 2.0 | 0.00 | 0.58 | 0.00 | 93 | 1014.0 |
| 20260507003305 | 49 | 101 | 0.0 | 2.0 | 0.00 | 0.64 | 0.00 | 93 | 1014.1 |
| 20260507001806 | 50 | 124 | 1.0 | 2.0 | 0.00 | 0.67 | 0.00 | 92 | 1014.0 |
| 20260507001305 | 51 | 116 | 0.0 | 1.0 | 0.00 | 0.67 | 0.00 | 92 | 1013.8 |
| 20260507000806 | 51 | 241 | 0.0 | 2.0 | 0.00 | 0.69 | 0.00 | 92 | 1013.8 |
| 20260507000306 | 51 | 277 | 1.0 | 5.0 | 0.00 | 0.74 | 0.00 | 93 | 1014.0 |
| 20260506234807 | 49 | 23 | 1.0 | 2.0 | 0.00 | 0.77 | 0.00 | 94 | 1014.1 |
| 20260506234305 | 48 | 169 | 1.0 | 2.0 | 0.00 | 0.77 | 0.00 | 93 | 1014.1 |
| 20260506233805 | 49 | 138 | 1.0 | 2.0 | 0.00 | 0.77 | 0.00 | 93 | 1014.0 |
| 20260506233305 | 49 | 131 | 1.0 | 2.0 | 0.00 | 0.77 | 0.00 | 92 | 1014.2 |
| 20260506231805 | 50 | 136 | 1.0 | 2.0 | 0.00 | 0.77 | 0.00 | 89 | 1014.2 |
| 20260506231305 | 50 | 78 | 1.0 | 2.0 | 0.00 | 0.77 | 0.00 | 88 | 1014.1 |
| 20260506230305 | 52 | 60 | 1.0 | 3.0 | 0.00 | 0.77 | 0.00 | 87 | 1014.2 |
| 20260506224806 | 52 | 190 | 1.0 | 6.0 | 0.00 | 0.77 | 0.00 | 85 | 1014.0 |
| 20260506224305 | 53 | 70 | 1.0 | 3.0 | 0.00 | 0.77 | 0.00 | 85 | 1014.1 |
| 20260506223805 | 53 | 31 | 2.0 | 6.0 | 0.00 | 0.77 | 0.00 | 84 | 1014.0 |
| 20260506223305 | 53 | 290 | 1.0 | 10.0 | 0.00 | 0.77 | 0.00 | 84 | 1014.1 |
| 20260506221805 | 50 | 191 | 1.0 | 2.0 | 0.00 | 0.77 | 0.00 | 86 | 1014.1 |
| 20260506221305 | 50 | 213 | 1.0 | 2.0 | 0.00 | 0.77 | 0.00 | 86 | 1014.1 |
| 20260506220805 | 50 | 79 | 0.0 | 3.0 | 0.00 | 0.77 | 0.00 | 87 | 1014.0 |
| 20260506220306 | 50 | 225 | 0.0 | 5.0 | 0.00 | 0.77 | 0.00 | 86 | 1014.2 |
| 20260506214805 | 48 | 140 | 1.0 | 2.0 | 0.00 | 0.77 | 0.77 | 89 | 1014.2 |
| 20260506214305 | 47 | 115 | 1.0 | 2.0 | 0.00 | 0.77 | 0.77 | 90 | 1014.3 |
| 20260506213805 | 47 | 232 | 1.0 | 2.0 | 0.00 | 0.77 | 0.77 | 90 | 1014.3 |
| 20260506213305 | 48 | 91 | 1.0 | 2.0 | 0.00 | 0.77 | 0.77 | 89 | 1014.3 |
| 20260506211805 | 49 | 115 | 1.0 | 2.0 | 0.00 | 0.77 | 0.77 | 87 | 1014.1 |
| 20260506211305 | 51 | 86 | 1.0 | 2.0 | 0.00 | 0.77 | 0.77 | 84 | 1013.7 |
| 20260506210805 | 51 | 142 | 1.0 | 2.0 | 0.00 | 0.77 | 0.77 | 81 | 1013.9 |
| 20260506203805 | 51 | 47 | 0.0 | 2.0 | 0.00 | 0.77 | 0.77 | 82 | 1014.0 |
| 20260506203305 | 49 | 58 | 0.0 | 2.0 | 0.00 | 0.77 | 0.77 | 89 | 1013.8 |
| 20260506201304 | 50 | 148 | 0.0 | 1.0 | 0.00 | 0.77 | 0.77 | 88 | 1013.7 |
| 20260506200806 | 51 | 135 | 0.0 | 1.0 | 0.00 | 0.77 | 0.77 | 86 | 1013.2 |
| 20260506200306 | 51 | 113 | 1.0 | 2.0 | 0.00 | 0.77 | 0.77 | 85 | 1013.4 |
| 20260506194805 | 53 | 95 | 0.0 | 1.0 | 0.00 | 0.77 | 0.77 | 80 | 1013.0 |
| 20260506194305 | 53 | 51 | 0.0 | 1.0 | 0.00 | 0.77 | 0.77 | 80 | 1012.8 |
| 20260506193805 | 53 | 331 | 0.0 | 1.0 | 0.00 | 0.77 | 0.77 | 80 | 1012.8 |
| 20260506193306 | 53 | 260 | 0.0 | 3.0 | 0.00 | 0.77 | 0.77 | 80 | 1012.6 |
| 20260506191806 | 55 | 276 | 0.0 | 3.0 | 0.00 | 0.77 | 0.77 | 78 | 1012.3 |
| 20260506191304 | 56 | 207 | 2.0 | 5.0 | 0.00 | 0.77 | 0.77 | 76 | 1012.1 |
| 20260506190806 | 56 | 278 | 2.0 | 5.0 | 0.00 | 0.77 | 0.77 | 76 | 1011.9 |
| 20260506190305 | 55 | 270 | 1.0 | 3.0 | 0.00 | 0.77 | 0.77 | 75 | 1011.9 |
| 20260506184805 | 56 | 242 | 0.0 | 6.0 | 0.00 | 0.77 | 0.77 | 74 | 1011.5 |
| 20260506184304 | 57 | 55 | 0.0 | 2.0 | 0.00 | 0.77 | 0.77 | 72 | 1011.4 |
| 20260506183805 | 57 | 280 | 1.0 | 10.0 | 0.00 | 0.77 | 0.77 | 71 | 1011.2 |
| 20260506183304 | 58 | 268 | 2.0 | 6.0 | 0.00 | 0.77 | 0.77 | 70 | 1011.0 |
| 20260506181804 | 59 | 294 | 2.0 | 5.0 | 0.00 | 0.77 | 0.77 | 67 | 1011.2 |
| 20260506180806 | 60 | 273 | 2.0 | 5.0 | 0.00 | 0.77 | 0.77 | 65 | 1010.8 |
| 20260506180305 | 60 | 304 | 2.0 | 8.0 | 0.00 | 0.77 | 0.77 | 65 | 1010.8 |
| 20260506174805 | 61 | 306 | 2.0 | 9.0 | 0.00 | 0.77 | 0.77 | 62 | 1010.5 |
| 20260506174305 | 62 | 280 | 3.0 | 10.0 | 0.00 | 0.77 | 0.77 | 60 | 1010.5 |
| 20260506173805 | 63 | 276 | 2.0 | 3.0 | 0.00 | 0.77 | 0.77 | 58 | 1010.3 |
| 20260506173305 | 63 | 300 | 2.0 | 7.0 | 0.00 | 0.77 | 0.77 | 58 | 1010.2 |
| 20260506171305 | 64 | 304 | 3.0 | 7.0 | 0.00 | 0.77 | 0.77 | 55 | 1010.1 |
| 20260506170306 | 65 | 312 | 1.0 | 14.0 | 0.00 | 0.77 | 0.77 | 53 | 1009.8 |
| 20260506164304 | 65 | 316 | 2.0 | 7.0 | 0.00 | 0.77 | 0.77 | 49 | 1010.0 |
| 20260506163806 | 66 | 297 | 2.0 | 6.0 | 0.00 | 0.77 | 0.77 | 49 | 1010.1 |
| 20260506163305 | 66 | 303 | 1.0 | 10.0 | 0.00 | 0.77 | 0.77 | 47 | 1010.1 |
| 20260506161806 | 65 | 305 | 3.0 | 8.0 | 0.00 | 0.77 | 0.77 | 45 | 1009.8 |
| 20260506161304 | 66 | 295 | 2.0 | 6.0 | 0.00 | 0.77 | 0.77 | 44 | 1009.9 |
| 20260506160806 | 66 | 308 | 2.0 | 10.0 | 0.00 | 0.77 | 0.77 | 44 | 1010.2 |
| 20260506160304 | 66 | 315 | 2.0 | 13.0 | 0.00 | 0.77 | 0.77 | 44 | 1010.0 |
| 20260506154805 | 68 | 303 | 1.0 | 6.0 | 0.00 | 0.77 | 0.77 | 43 | 1009.7 |
| 20260506154304 | 67 | 289 | 3.0 | 10.0 | 0.00 | 0.77 | 0.77 | 42 | 1009.8 |
| 20260506151805 | 67 | 278 | 4.0 | 10.0 | 0.00 | 0.77 | 0.77 | 45 | 1009.6 |
| 20260506150804 | 68 | 301 | 3.0 | 9.0 | 0.00 | 0.77 | 0.77 | 44 | 1009.6 |
| 20260506144805 | 68 | 290 | 2.0 | 10.0 | 0.00 | 0.77 | 0.77 | 42 | 1009.7 |
| 20260506144305 | 68 | 292 | 5.0 | 10.0 | 0.00 | 0.77 | 0.77 | 41 | 1009.5 |
| 20260506143806 | 67 | 298 | 3.0 | 14.0 | 0.00 | 0.77 | 0.77 | 42 | 1009.8 |
| 20260506143305 | 68 | 302 | 3.0 | 13.0 | 0.00 | 0.77 | 0.77 | 43 | 1009.8 |
| 20260506141805 | 68 | 311 | 2.0 | 9.0 | 0.00 | 0.77 | 0.77 | 46 | 1009.6 |
| 20260506141304 | 68 | 288 | 2.0 | 14.0 | 0.00 | 0.77 | 0.77 | 46 | 1009.5 |
| 20260506140804 | 67 | 282 | 2.0 | 8.0 | 0.00 | 0.77 | 0.77 | 48 | 1009.6 |
| 20260506140305 | 67 | 254 | 3.0 | 13.0 | 0.00 | 0.77 | 0.77 | 47 | 1009.6 |
| 20260506134804 | 67 | 54 | 2.0 | 7.0 | 0.00 | 0.77 | 0.77 | 46 | 1009.9 |
| 20260506134304 | 67 | 299 | 3.0 | 10.0 | 0.00 | 0.77 | 0.77 | 48 | 1009.9 |
| 20260506133805 | 69 | 322 | 2.0 | 6.0 | 0.00 | 0.77 | 0.77 | 46 | 1009.6 |
| 20260506133304 | 69 | 345 | 2.0 | 9.0 | 0.00 | 0.77 | 0.77 | 49 | 1009.8 |
| 20260506131805 | 67 | 288 | 1.0 | 10.0 | 0.00 | 0.77 | 0.77 | 49 | 1010.1 |
| 20260506131306 | 66 | 333 | 2.0 | 12.0 | 0.00 | 0.77 | 0.77 | 49 | 1010.0 |
| 20260506130804 | 67 | 344 | 2.0 | 8.0 | 0.00 | 0.77 | 0.77 | 46 | 1009.8 |
| 20260506130304 | 64 | 316 | 3.0 | 7.0 | 0.00 | 0.77 | 0.77 | 51 | 1010.3 |
| 20260506124805 | 64 | 25 | 1.0 | 5.0 | 0.00 | 0.77 | 0.77 | 51 | 1010.1 |
| 20260506124304 | 64 | 270 | 1.0 | 6.0 | 0.00 | 0.77 | 0.77 | 52 | 1010.4 |
| 20260506123306 | 64 | 14 | 3.0 | 12.0 | 0.00 | 0.77 | 0.77 | 53 | 1010.3 |
| 20260506121804 | 65 | 289 | 3.0 | 9.0 | 0.00 | 0.77 | 0.77 | 54 | 1010.3 |
| 20260506121306 | 65 | 333 | 1.0 | 8.0 | 0.00 | 0.77 | 0.77 | 54 | 1010.4 |
| 20260506120805 | 66 | 24 | 3.0 | 8.0 | 0.00 | 0.77 | 0.77 | 52 | 1010.3 |
| 20260506120305 | 65 | 287 | 2.0 | 10.0 | 0.00 | 0.77 | 0.77 | 55 | 1010.3 |
| 20260506114304 | 66 | 20 | 1.0 | 5.0 | 0.00 | 0.77 | 0.77 | 54 | 1010.5 |
| 20260506113806 | 66 | 7 | 2.0 | 8.0 | 0.00 | 0.77 | 0.77 | 55 | 1010.3 |
| 20260506113305 | 66 | 281 | 3.0 | 13.0 | 0.00 | 0.77 | 0.77 | 54 | 1010.3 |
| 20260506111805 | 65 | 316 | 1.0 | 8.0 | 0.00 | 0.77 | 0.77 | 56 | 1010.5 |
| 20260506111305 | 65 | 295 | 2.0 | 6.0 | 0.00 | 0.77 | 0.77 | 56 | 1010.6 |
| 20260506110804 | 65 | 320 | 2.0 | 7.0 | 0.00 | 0.77 | 0.77 | 58 | 1010.7 |
| 20260506110304 | 65 | 316 | 1.0 | 10.0 | 0.00 | 0.77 | 0.77 | 60 | 1010.8 |
| 20260506104304 | 65 | 296 | 1.0 | 5.0 | 0.00 | 0.77 | 0.77 | 58 | 1010.8 |
| 20260506103805 | 65 | 329 | 2.0 | 5.0 | 0.00 | 0.77 | 0.77 | 60 | 1010.8 |
| 20260506103305 | 65 | 25 | 1.0 | 9.0 | 0.00 | 0.77 | 0.77 | 58 | 1010.9 |
| 20260506101804 | 62 | 295 | 3.0 | 7.0 | 0.00 | 0.77 | 0.77 | 64 | 1011.2 |
| 20260506100804 | 63 | 356 | 2.0 | 7.0 | 0.00 | 0.77 | 0.77 | 65 | 1010.9 |